星链-35882(STARLINK-35882)

导读

STARLINK-35882是美国太空探索技术公司星链星座的成员,于2025年12月14日发射升空。该卫星延续星链网络的低轨互联网卫星设计,为全球偏远地区、移动载体及高密度区域提供高速低延迟的宽带互联网服务,进一步扩充了星链星座的覆盖规模与服务容量,强化美国低轨卫星通信网络的整体能力。

Basic Information
目录编号:
67088
目录名称:
STARLINK-35882
国际标识:
2025-298P
轨道中心:
EARTH
卫星名称:
星链-35882
卫星全名:
星链-35882(STARLINK-35882)
卫星状态:
在轨 (已飞行181 天)
发射日期:
2025-12-14 UTC
国别 :
美国 (US)
星等 :
--
Orbit Information
数据来源 国际轨道数据 AOE轨道数据
星历时间 2026-06-12T15:01:47+0800
1天前
查看轨道信息
2026-06-13T06:00:00+0800
11小时前
查看轨道信息
半长轴 6950.143km 6950.181km
偏心率 0.0004395 0.000471
轨道倾角 70.001° 70.000°
近地点辐角 255.762° 255.338°
升交点赤经 136.101° 134.526°
平近点角 104.305° 228.302°
近地点 568.951km 568.77km
远地点 575.061km 575.318km
周期 96.106分钟 96.107分钟
每日圈数 14.983463 14.983339
Detailed Information
固有亮度:
5
最大亮度:
2.5
卫星平台:
Starlink V1.0
覆盖范围:
全球
运营商:
太空探索技术公司
运营商所在国:
美国
制造商(研发单位):
太空探索技术公司
制造商所在国:
美国
使用方式:
暂无
Satellite Introduction
Starlink 计划是 SpaceX 推出的全球卫星互联网项目,通过发射低轨道卫星,为全球尤其是偏远地区提供高速、低延迟的互联网服务。自 2019 年起,Starlink 已部署数千颗卫星,旨在缩小全球数字鸿沟,推动互联网普及。该项目还为军事、航空等行业提供通信支持,带来广泛经济效益。
2D Orbit Map
3D Orbit Map
Orbit Altitude Analysis Chart
Orbit Inclination Analysis Chart
Orbit Comprehensive Analysis Chart
View Comprehensive Chart